Lid_Strength_Index
1 1 1 1 1 2 2 2 2 2 2 2 2 2 2 2 2 2 2 2 2 3 3 3 2 1 1 3 3 -1 -3 -2 1 2 3 3 4 4 5 5 4 5 5 4 4 4 4
1 1 1 1 1 2 2 2 2 2 2 2 2 2 2 2 2 3 3 3 3 3 3 2 2 2 2 5 1 -1 0 1 2 2 3 2 3 3 4 5 5 4 5 5 4 4 4
1 1 2 1 1 2 2 2 2 2 2 2 2 3 3 3 3 3 3 3 3 3 2 2 1 1 4 4 1 -1 1 2 2 2 3 2 2 3 3 5 4 4 6 5 4 4 5
1 1 2 1 1 2 2 2 2 2 2 2 3 3 3 3 3 3 3 3 2 3 2 1 1 2 5 2 1 1 1 2 1 1 2 2 2 3 3 3 4 5 5 7 5 4 4
1 2 2 2 2 2 2 2 3 3 3 3 3 3 3 3 3 3 3 3 2 2 0 0 1 2 5 2 2 1 1 3 2 2 2 3 3 4 4 5 7 6 8 8 7 4 5
2 2 2 2 2 2 2 3 3 3 3 3 3 3 3 3 3 3 4 3 1 1 1 1 1 4 4 4 2 2 1 2 3 3 4 4 4 5 5 6 10 8 8 7 8 6 5
2 2 2 2 2 3 3 3 3 3 3 3 3 4 4 3 3 4 3 1 2 3 2 3 4 5 4 2 1 3 2 3 3 4 6 4 6 7 6 6 6 7 7 8 7 5 6
3 3 3 3 4 4 3 4 4 4 3 3 4 4 4 4 4 4 3 2 4 3 5 3 3 3 2 2 4 3 2 5 5 6 5 6 7 6 5 6 6 6 8 8 7 6 6
4 4 4 4 5 5 4 4 5 5 4 4 5 4 4 4 5 3 3 4 3 3 5 4 3 4 3 2 4 4 3 4 6 6 6 7 6 5 6 6 7 7 8 8 8 7 6
4 4 4 5 5 5 5 5 5 5 5 5 5 5 5 6 5 4 3 3 3 2 7 6 6 4 3 3 5 2 2 4 5 7 6 6 5 6 6 7 6 8 6 7 7 8 10
2 3 3 4 5 5 5 5 5 5 5 5 5 5 5 6 4 5 4 3 3 3 12 7 5 2 3 4 4 4 2 4 6 6 6 7 7 7 7 7 6 8 6 7 7 8 8
2 2 3 4 4 4 4 4 4 4 4 5 5 5 6 4 4 4 4 3 3 8 13 7 5 5 5 5 5 4 4 3 4 6 6 6 5 6 6 6 6 5 6 7 7 8 11
2 3 3 3 3 4 3 3 3 4 4 4 4 4 5 3 3 2 3 3 9 12 8 8 7 6 6 6 6 5 6 6 7 9 8 7 7 6 6 7 6 6 7 11 12 12 12
3 3 3 3 3 4 3 4 4 4 4 4 5 5 4 3 2 2 2 5 11 9 9 6 6 6 7 6 6 6 6 7 5 6 7 9 10 7 6 6 7 7 7 11 19 12 11
3 3 3 4 4 4 4 4 4 4 4 4 5 2 2 1 1 2 4 9 8 8 7 7 7 8 8 7 7 6 7 7 6 5 9 9 9 6 6 6 5 7 9 7 10 10 12
3 3 4 4 4 4 4 3 3 3 4 4 4 4 1 1 0 2 5 9 7 6 6 6 8 8 9 8 8 7 7 6 6 5 4 7 10 7 7 5 6 6 6 10 9 16 15
4 4 4 4 4 4 4 3 3 3 4 5 3 5 2 0 1 4 8 7 6 5 5 7 8 9 8 9 8 8 8 6 5 5 4 6 7 8 7 7 8 8 8 8 9 10 14
4 4 4 4 4 4 4 3 3 3 5 4 4 7 1 -0 6 4 7 6 7 6 5 6 6 6 7 7 8 8 8 7 5 5 7 5 7 10 8 6 6 6 7 7 11 12 11
5 4 4 4 4 4 4 4 3 4 4 4 6 5 0 1 8 7 6 6 6 6 6 6 7 6 6 7 9 7 7 6 6 6 7 6 8 11 10 8 6 7 7 7 7 8 11
5 5 5 5 4 4 4 4 4 4 4 4 5 7 4 3 3 7 8 7 7 5 6 6 6 6 7 7 6 8 7 6 6 6 5 5 8 9 13 9 7 9 8 7 8 11 11
6 5 5 5 4 4 4 4 4 4 4 4 5 6 5 7 6 6 6 7 8 8 6 5 7 7 8 9 8 8 7 7 6 5 6 7 10 8 8 7 7 8 8 8 9 8 10
5 5 5 5 4 4 4 4 4 4 5 4 6 6 5 6 6 7 8 8 8 8 7 7 8 7 7 9 8 9 8 8 8 7 7 7 12 10 11 8 8 8 8 7 8 7 8
4 5 4 4 4 4 4 3 4 4 4 4 3 4 5 8 8 7 7 7 8 7 6 6 6 7 8 7 6 5 5 5 6 8 9 8 9 12 15 10 9 11 8 8 7 7 7
4 4 5 5 4 4 4 4 4 4 5 4 4 4 6 9 8 8 8 7 8 7 7 6 5 7 5 4 4 4 5 5 6 6 6 9 10 9 12 10 16 9 6 6 8 7 6
4 4 5 5 4 4 4 4 4 4 5 4 4 4 6 9 7 8 8 8 7 6 7 6 5 4 3 4 8 9 9 9 8 7 7 6 9 11 13 13 10 10 8 8 9 8 6
3 3 4 4 4 4 4 4 4 3 5 4 5 4 5 8 9 8 8 8 8 8 7 6 4 3 4 6 8 12 13 11 12 10 6 7 7 11 11 16 17 9 6 5 5 10 6
3 3 3 3 4 4 4 4 4 4 5 4 4 4 5 8 6 6 7 7 6 7 7 6 5 5 4 8 10 11 11 9 12 12 12 12 11 13 12 14 11 7 6 5 12 10 5
3 4 4 3 3 3 4 4 4 4 4 4 5 4 6 7 7 7 6 7 6 7 8 6 6 6 6 9 9 9 10 9 10 9 10 11 13 14 13 16 17 6 7 10 7 5 4
3 3 3 3 4 3 4 4 4 4 4 5 5 3 4 7 7 6 6 5 5 5 5 5 6 7 6 9 7 8 9 8 9 12 7 12 9 12 11 12 7 6 6 5 5 5 4